Back to catalog

DMSP 5D-2 F11 DEB

AliveSSO
NORAD 28322·DEBRIS·🇺🇸 United States

Launched Nov 28, 1991 from Vandenberg Space Force Base

Loading…

Next Passes (next 24 hours)

TLE

FreshSource: Space-Track

Epoch: Sep 11, 2026, 17:27 UTC

1 28322U 91082AK  26254.72756684  .00000597  00000-0  41774-3 0  9998
2 28322  98.5712 247.7887 0111425 345.1247 190.0562 13.99071250139311

Track DMSP 5D-2 F11 DEB in real time with AllMySat

Download on the App Store